Wind_Speed
9 9 9 7 6 5 6 6 7 10 10 8 8 8 9 10 10 8 7 4 4 3 4 4 6 7 8 9 9 8 9 10 10
10 11 11 11 10 9 9 8 7 8 8 8 8 9 10 10 10 9 8 5 4 2 3 5 5 7 7 8 7 7 8 9 10
7 11 13 13 13 12 12 11 8 7 9 8 8 8 9 9 10 10 9 7 4 2 3 5 6 7 7 6 7 6 6 7 9
12 8 11 14 16 16 15 14 13 10 8 8 8 8 8 9 9 9 8 7 4 2 3 3 5 8 7 6 5 5 5 6 7
17 14 8 12 15 17 18 17 16 13 11 9 8 8 9 8 8 9 8 7 5 2 2 3 4 6 6 5 4 3 3 4 5
17 17 15 10 11 16 19 19 19 17 14 12 10 8 8 9 8 7 8 7 4 2 1 3 5 5 5 3 2 1 1 2 3
16 17 16 15 11 11 16 20 21 20 18 16 15 12 11 9 9 9 8 8 6 3 3 4 6 6 6 5 3 2 2 3 4
13 14 15 15 15 13 10 15 20 22 18 19 18 16 14 12 9 10 10 9 8 8 4 5 6 7 7 7 6 4 5 4 5
11 11 12 13 13 14 13 10 14 19 22 19 20 16 13 14 13 10 11 10 10 9 10 7 7 9 8 8 8 7 6 7 7
10 10 10 11 12 12 12 12 11 13 17 21 20 18 16 20 17 15 14 12 11 12 11 11 10 10 10 11 11 11 10 10 10
9 10 10 10 10 10 10 11 12 10 13 17 20 26 19 18 21 16 17 16 14 13 13 13 13 13 13 13 14 15 15 15 14
9 9 9 10 10 9 8 9 9 11 11 12 16 16 18 24 21 20 20 18 20 17 15 14 15 15 16 15 16 17 17 17 17
8 9 9 9 8 8 7 8 8 10 11 10 10 15 22 20 31 19 24 29 25 23 23 19 17 18 17 18 19 19 19 19 19
8 8 8 7 7 7 6 6 7 8 10 11 10 9 16 25 22 23 20 18 22 29 28 18 18 19 21 21 20 22 23 22 20
9 8 8 7 6 5 4 4 6 7 8 8 10 9 8 16 25 29 27 23 24 20 27 22 25 24 25 21 21 23 25 25 23
11 10 8 7 6 5 3 2 4 5 7 8 8 9 8 8 15 22 23 23 20 22 17 20 19 17 24 26 22 20 24 25 25
12 12 10 8 6 5 3 1 3 5 7 9 8 8 7 8 5 8 16 14 15 15 16 13 9 13 14 18 17 24 25 28 28
12 12 11 9 8 6 4 2 2 4 6 8 9 9 10 11 9 2 3 6 11 14 15 16 19 13 23 21 22 20 24 28 27
12 12 11 10 9 8 7 5 4 4 6 8 9 10 11 10 10 9 4 4 9 10 14 15 16 16 18 20 20 18 21 25 25
14 13 12 11 10 10 8 7 5 4 4 6 8 9 10 9 6 5 7 8 5 3 11 18 20 20 20 19 22 17 14 20 20
Wind_Direction
265 251 258 267 278 291 311 324 336 347 354 357 6 7 12 19 28 19 15 29 48 48 54 54 87 97 104 98 88 78 69 58 48
274 257 245 249 260 272 281 291 309 326 343 352 357 359 9 9 23 13 17 21 46 62 89 90 104 109 115 108 97 84 68 56 47
310 268 257 248 248 256 268 280 290 306 325 338 348 352 1 0 15 11 14 16 43 65 102 124 135 133 132 125 117 106 86 67 54
3 316 271 255 247 248 257 265 274 282 295 314 331 343 348 354 4 12 11 16 26 74 114 142 155 150 152 144 129 113 101 80 64
15 7 328 276 260 252 248 256 261 266 275 289 306 323 339 338 1 356 3 12 7 37 125 158 172 173 169 158 148 119 80 63 57
20 15 9 340 283 263 254 248 254 259 264 270 281 298 316 325 343 344 347 351 354 345 275 197 186 188 189 188 188 169 103 44 36
11 12 11 6 348 293 265 254 249 252 258 262 267 275 291 308 328 327 331 334 329 324 291 251 207 200 203 207 216 261 302 325 344
8 6 4 5 2 352 308 269 255 250 262 252 261 268 273 286 299 311 318 318 321 314 291 266 250 225 225 227 235 247 278 300 313
359 1 358 359 359 356 348 314 275 259 243 248 263 264 286 275 278 294 302 308 309 309 303 285 262 263 259 254 259 264 271 285 297
348 351 355 353 353 353 354 347 317 283 264 246 241 248 267 275 283 276 291 295 299 299 299 297 286 274 273 279 282 283 287 291 299
336 341 346 348 349 351 351 351 347 318 285 262 248 236 239 263 257 274 281 279 290 291 293 293 291 285 281 281 283 288 292 295 300
323 331 337 339 341 346 351 348 345 338 320 292 267 252 235 242 268 263 268 270 279 285 286 289 287 287 284 279 280 283 286 289 294
310 316 324 329 333 336 339 340 344 344 335 329 293 256 232 249 247 280 271 273 281 277 278 279 284 284 280 283 281 276 278 283 289
306 310 312 314 318 323 335 334 341 344 338 335 323 295 243 234 241 251 270 281 276 271 291 283 283 289 292 287 282 282 281 278 277
301 300 299 297 294 297 311 333 347 354 349 341 331 327 293 250 240 247 255 263 274 286 282 280 284 293 275 283 287 288 284 282 280
297 295 291 284 272 259 260 325 15 23 25 17 6 355 335 302 254 244 247 258 274 279 307 300 294 312 303 293 279 287 288 287 287
292 294 293 287 276 263 250 262 26 34 36 29 25 23 10 352 331 257 237 238 262 288 275 294 26 10 353 0 318 298 281 287 291
283 283 283 281 276 261 253 285 10 29 38 41 36 34 23 22 22 13 240 235 248 248 264 300 294 296 314 314 311 307 309 277 278
272 272 273 272 266 259 257 271 311 348 12 21 28 34 35 37 43 44 58 203 215 230 264 282 280 286 288 295 300 299 302 302 303
271 265 261 261 258 252 253 260 275 302 341 10 19 22 27 32 45 59 78 98 130 240 279 292 294 286 287 301 298 275 298 314 299
Height
3185 3186 3186 3187 3188 3188 3189 3189 3188 3188 3188 3187 3186 3186 3184 3182 3182 3181 3180 3179 3179 3179 3179 3179 3179 3179 3179 3179 3180 3180 3180 3179 3179
3183 3183 3184 3185 3186 3187 3188 3189 3189 3189 3189 3188 3187 3186 3185 3184 3183 3182 3181 3179 3179 3179 3179 3179 3180 3179 3180 3180 3180 3181 3181 3181 3180
3180 3181 3181 3182 3184 3185 3186 3187 3188 3189 3189 3189 3188 3187 3186 3185 3185 3183 3182 3181 3180 3180 3180 3179 3179 3179 3180 3181 3181 3180 3181 3180 3180
3180 3179 3179 3180 3181 3183 3184 3185 3187 3188 3189 3188 3188 3188 3187 3186 3186 3184 3184 3182 3180 3180 3181 3181 3181 3179 3180 3181 3181 3181 3180 3179 3179
3180 3179 3177 3177 3178 3179 3182 3183 3185 3186 3188 3188 3187 3187 3187 3186 3186 3185 3184 3184 3183 3181 3181 3181 3181 3182 3181 3181 3181 3181 3181 3181 3180
3181 3179 3177 3176 3175 3176 3178 3180 3181 3184 3186 3186 3186 3186 3186 3186 3186 3186 3185 3184 3183 3183 3182 3181 3181 3182 3182 3183 3183 3182 3181 3181 3180
3181 3180 3178 3176 3175 3174 3175 3176 3178 3180 3183 3184 3184 3185 3185 3185 3186 3186 3185 3185 3184 3183 3183 3183 3181 3181 3181 3182 3182 3183 3182 3182 3181
3182 3181 3179 3177 3175 3173 3172 3173 3174 3176 3179 3181 3182 3183 3184 3184 3185 3185 3185 3185 3184 3184 3183 3183 3183 3182 3181 3181 3181 3181 3181 3181 3180
3183 3182 3180 3178 3176 3174 3172 3171 3171 3172 3174 3177 3178 3181 3182 3182 3182 3183 3183 3184 3184 3184 3184 3183 3183 3184 3183 3182 3181 3181 3180 3180 3179
3183 3182 3180 3179 3176 3174 3172 3170 3168 3168 3170 3172 3175 3177 3180 3180 3181 3181 3182 3182 3182 3183 3183 3183 3183 3182 3183 3183 3182 3182 3181 3180 3179
3182 3181 3180 3178 3176 3174 3172 3170 3168 3166 3166 3167 3169 3173 3176 3177 3175 3178 3180 3180 3180 3180 3182 3182 3182 3182 3182 3181 3181 3180 3180 3180 3179
3180 3179 3178 3177 3175 3174 3172 3170 3168 3166 3164 3163 3165 3168 3172 3174 3173 3174 3177 3176 3178 3177 3179 3179 3180 3180 3180 3179 3178 3178 3178 3177 3177
3178 3178 3177 3176 3175 3173 3171 3170 3168 3166 3164 3163 3162 3163 3167 3171 3172 3171 3173 3173 3174 3174 3175 3176 3177 3177 3177 3177 3176 3174 3173 3174 3174
3177 3176 3176 3175 3173 3172 3171 3170 3168 3166 3164 3162 3160 3160 3162 3165 3168 3170 3170 3170 3169 3171 3171 3171 3173 3174 3175 3175 3174 3173 3171 3170 3169
3175 3174 3175 3173 3173 3172 3171 3170 3168 3166 3164 3161 3159 3158 3158 3159 3162 3166 3167 3168 3167 3167 3169 3168 3168 3168 3170 3171 3172 3171 3169 3168 3168
3172 3172 3172 3172 3171 3171 3170 3170 3169 3167 3164 3162 3160 3157 3156 3155 3156 3160 3162 3164 3164 3165 3165 3165 3165 3164 3166 3167 3167 3166 3165 3166 3166
3169 3168 3168 3169 3169 3169 3168 3169 3167 3166 3163 3163 3161 3157 3157 3154 3153 3154 3156 3159 3161 3162 3164 3165 3162 3164 3165 3163 3163 3162 3162 3161 3161
3165 3166 3166 3166 3166 3167 3167 3165 3165 3164 3164 3162 3161 3158 3156 3154 3151 3153 3152 3156 3157 3160 3161 3161 3162 3162 3163 3159 3159 3157 3156 3155 3156
3162 3162 3163 3163 3164 3164 3163 3163 3162 3163 3161 3160 3157 3158 3156 3154 3154 3152 3152 3153 3157 3158 3159 3159 3159 3157 3157 3156 3153 3152 3152 3152 3151
3159 3159 3160 3161 3161 3161 3161 3161 3161 3161 3160 3158 3158 3157 3155 3155 3154 3153 3153 3155 3155 3156 3157 3156 3154 3154 3153 3152 3148 3148 3148 3148 3147